Location: Buchloe
(48.0161°N, 10.7316°E)
Time: 11:20:14
(UTC+02:00)

ISS - Visible Passes

Search period start: 26 April 2018 00:00
Search period end: 06 May 2018 00:00
Orbit: 403 x 406 km, 51.6° (Epoch: 26 April)

Date Brightness Start Highest point End Pass type
(mag) Time Alt. Az. Time Alt. Az. Time Alt. Az.
03 May -1.7 05:11:23 10° S 05:13:46 19° SE 05:16:10 10° E visible
04 May -1.2 04:20:38 10° SSE 04:21:40 11° SE 04:22:43 10° ESE visible
05 May -2.8 05:02:15 10° SW 05:05:17 36° SE 05:08:20 10° ENE visible
